Year,Month,Day,Hour,Minute,Value (Times are PST for windspeed in km/hr)
2015,08,30,00,00,0.00
2015,08,30,00,01,0.00
2015,08,30,00,02,0.00
2015,08,30,00,03,0.00
2015,08,30,00,04,0.00
2015,08,30,00,05,0.00
2015,08,30,00,06,0.00
2015,08,30,00,07,0.00
2015,08,30,00,08,0.60
2015,08,30,00,09,0.30
2015,08,30,00,10,0.20
2015,08,30,00,11,0.00
2015,08,30,00,12,0.00
2015,08,30,00,13,0.00
2015,08,30,00,14,0.00
2015,08,30,00,15,0.00
2015,08,30,00,16,0.00
2015,08,30,00,17,0.00
2015,08,30,00,18,0.00
2015,08,30,00,19,0.00
2015,08,30,00,20,0.00
2015,08,30,00,21,0.00
2015,08,30,00,22,0.00
2015,08,30,00,23,0.00
2015,08,30,00,24,0.00
2015,08,30,00,25,0.00
2015,08,30,00,26,0.00
2015,08,30,00,27,0.00
2015,08,30,00,28,0.00
2015,08,30,00,29,0.00
2015,08,30,00,30,0.00
2015,08,30,00,31,0.00
2015,08,30,00,32,0.00
2015,08,30,00,33,0.00
2015,08,30,00,34,0.00
2015,08,30,00,35,0.00
2015,08,30,00,36,0.00
2015,08,30,00,37,0.00
2015,08,30,00,38,0.00
2015,08,30,00,39,0.00
2015,08,30,00,40,0.00
2015,08,30,00,41,0.00
2015,08,30,00,42,0.00
2015,08,30,00,43,0.00
2015,08,30,00,44,0.00
2015,08,30,00,45,0.00
2015,08,30,00,46,0.00
2015,08,30,00,47,0.00
2015,08,30,00,48,0.10
2015,08,30,00,49,0.10
2015,08,30,00,50,0.00
2015,08,30,00,51,0.00
2015,08,30,00,52,0.00
2015,08,30,00,53,0.00
2015,08,30,00,54,0.00
2015,08,30,00,55,0.00
2015,08,30,00,56,0.00
2015,08,30,00,57,0.00
2015,08,30,00,58,0.00
2015,08,30,00,59,0.00
2015,08,30,01,00,0.00
2015,08,30,01,01,0.00
2015,08,30,01,02,0.00
2015,08,30,01,03,0.00
2015,08,30,01,04,0.00
2015,08,30,01,05,0.00
2015,08,30,01,06,0.00
2015,08,30,01,07,0.00
2015,08,30,01,08,0.70
2015,08,30,01,09,1.80
2015,08,30,01,10,1.10
2015,08,30,01,11,3.10
2015,08,30,01,12,1.70
2015,08,30,01,13,1.60
2015,08,30,01,14,0.70
2015,08,30,01,15,2.10
2015,08,30,01,16,0.30
2015,08,30,01,17,0.00
2015,08,30,01,18,0.40
2015,08,30,01,19,0.40
2015,08,30,01,20,0.10
2015,08,30,01,21,0.00
2015,08,30,01,22,0.00
2015,08,30,01,23,0.10
2015,08,30,01,24,0.00
2015,08,30,01,25,0.00
2015,08,30,01,26,0.00
2015,08,30,01,27,0.00
2015,08,30,01,28,0.00
2015,08,30,01,29,0.00
2015,08,30,01,30,0.00
2015,08,30,01,31,0.00
2015,08,30,01,32,0.10
2015,08,30,01,33,0.10
2015,08,30,01,34,0.00
2015,08,30,01,35,0.10
2015,08,30,01,36,0.00
2015,08,30,01,37,0.00
2015,08,30,01,38,0.00
2015,08,30,01,39,0.00
2015,08,30,01,40,0.00
2015,08,30,01,41,0.00
2015,08,30,01,42,0.00
2015,08,30,01,43,0.10
2015,08,30,01,44,0.00
2015,08,30,01,45,0.40
2015,08,30,01,46,0.10
2015,08,30,01,47,0.10
2015,08,30,01,48,0.10
2015,08,30,01,49,0.10
2015,08,30,01,50,0.00
2015,08,30,01,51,0.00
2015,08,30,01,52,0.10
2015,08,30,01,53,0.00
2015,08,30,01,54,0.00
2015,08,30,01,55,0.00
2015,08,30,01,56,0.00
2015,08,30,01,57,0.00
2015,08,30,01,58,0.00
2015,08,30,01,59,0.00
2015,08,30,02,00,0.00
2015,08,30,02,01,0.00
2015,08,30,02,02,0.00
2015,08,30,02,03,0.00
2015,08,30,02,04,0.00
2015,08,30,02,05,0.00
2015,08,30,02,06,0.00
2015,08,30,02,07,0.00
2015,08,30,02,08,0.00
2015,08,30,02,09,0.00
2015,08,30,02,10,0.10
2015,08,30,02,11,1.60
2015,08,30,02,12,1.70
2015,08,30,02,13,1.50
2015,08,30,02,14,0.00
2015,08,30,02,15,0.00
2015,08,30,02,16,0.00
2015,08,30,02,17,0.00
2015,08,30,02,18,0.20
2015,08,30,02,19,0.00
2015,08,30,02,20,0.00
2015,08,30,02,21,0.00
2015,08,30,02,22,0.00
2015,08,30,02,23,0.00
2015,08,30,02,24,0.00
2015,08,30,02,25,0.00
2015,08,30,02,26,0.00
2015,08,30,02,27,0.00
2015,08,30,02,28,0.00
2015,08,30,02,29,0.00
2015,08,30,02,30,0.00
2015,08,30,02,31,0.00
2015,08,30,02,32,0.00
2015,08,30,02,33,0.00
2015,08,30,02,34,0.00
2015,08,30,02,35,0.10
2015,08,30,02,36,0.40
2015,08,30,02,37,1.30
2015,08,30,02,38,0.40
2015,08,30,02,39,0.30
2015,08,30,02,40,0.40
2015,08,30,02,41,1.50
2015,08,30,02,42,1.10
2015,08,30,02,43,1.90
2015,08,30,02,44,1.00
2015,08,30,02,45,0.20
2015,08,30,02,46,0.90
2015,08,30,02,47,1.90
2015,08,30,02,48,2.30
2015,08,30,02,49,0.60
2015,08,30,02,50,1.40
2015,08,30,02,51,1.90
2015,08,30,02,52,1.90
2015,08,30,02,53,2.70
2015,08,30,02,54,1.30
2015,08,30,02,55,0.30
2015,08,30,02,56,2.10
2015,08,30,02,57,2.10
2015,08,30,02,58,2.80
2015,08,30,02,59,0.40
2015,08,30,03,00,1.50
2015,08,30,03,01,0.00
2015,08,30,03,02,0.10
2015,08,30,03,03,0.80
2015,08,30,03,04,1.60
2015,08,30,03,05,0.10
2015,08,30,03,06,0.60
2015,08,30,03,07,0.20
2015,08,30,03,08,1.80
2015,08,30,03,09,0.30
2015,08,30,03,10,3.10
2015,08,30,03,11,5.10
2015,08,30,03,12,4.60
2015,08,30,03,13,4.60
2015,08,30,03,14,3.40
2015,08,30,03,15,2.20
2015,08,30,03,16,3.00
2015,08,30,03,17,1.60
2015,08,30,03,18,2.90
2015,08,30,03,19,4.30
2015,08,30,03,20,2.60
2015,08,30,03,21,3.90
2015,08,30,03,22,4.70
2015,08,30,03,23,3.40
2015,08,30,03,24,5.90
2015,08,30,03,25,2.50
2015,08,30,03,26,2.40
2015,08,30,03,27,6.50
2015,08,30,03,28,5.70
2015,08,30,03,29,6.00
2015,08,30,03,30,5.20
2015,08,30,03,31,4.40
2015,08,30,03,32,2.90
2015,08,30,03,33,1.00
2015,08,30,03,34,3.20
2015,08,30,03,35,5.60
2015,08,30,03,36,5.20
2015,08,30,03,37,4.00
2015,08,30,03,38,3.50
2015,08,30,03,39,5.20
2015,08,30,03,40,4.50
2015,08,30,03,41,5.20
2015,08,30,03,42,3.40
2015,08,30,03,43,3.30
2015,08,30,03,44,4.60
2015,08,30,03,45,3.00
2015,08,30,03,46,3.20
2015,08,30,03,47,0.30
2015,08,30,03,48,1.90
2015,08,30,03,49,1.00
2015,08,30,03,50,0.60
2015,08,30,03,51,0.10
2015,08,30,03,52,0.00
2015,08,30,03,53,0.00
2015,08,30,03,54,0.00
2015,08,30,03,55,0.00
2015,08,30,03,56,0.00
2015,08,30,03,57,0.00
2015,08,30,03,58,0.00
2015,08,30,03,59,0.00
2015,08,30,04,00,0.10
2015,08,30,04,01,0.00
2015,08,30,04,02,0.00
2015,08,30,04,03,0.10
2015,08,30,04,04,0.00
2015,08,30,04,05,0.00
2015,08,30,04,06,0.20
2015,08,30,04,07,0.60
2015,08,30,04,08,0.00
2015,08,30,04,09,0.00
2015,08,30,04,10,0.00
2015,08,30,04,11,0.00
2015,08,30,04,12,0.00
2015,08,30,04,13,0.00
2015,08,30,04,14,0.00
2015,08,30,04,15,0.00
2015,08,30,04,16,0.00
2015,08,30,04,17,0.00
2015,08,30,04,18,0.00
2015,08,30,04,19,0.00
2015,08,30,04,20,0.00
2015,08,30,04,21,0.00
2015,08,30,04,22,0.00
2015,08,30,04,23,0.00
2015,08,30,04,24,0.00
2015,08,30,04,25,0.00
2015,08,30,04,26,0.00
2015,08,30,04,27,0.00
2015,08,30,04,28,0.00
2015,08,30,04,29,0.00
2015,08,30,04,30,1.20
2015,08,30,04,31,2.00
2015,08,30,04,32,1.90
2015,08,30,04,33,4.20
2015,08,30,04,34,1.40
2015,08,30,04,35,2.50
2015,08,30,04,36,2.80
2015,08,30,04,37,3.30
2015,08,30,04,38,1.20
2015,08,30,04,39,3.10
2015,08,30,04,40,4.00
2015,08,30,04,41,4.90
2015,08,30,04,42,4.00
2015,08,30,04,43,3.10
2015,08,30,04,44,2.80
2015,08,30,04,45,3.90
2015,08,30,04,46,2.20
2015,08,30,04,47,1.50
2015,08,30,04,48,3.00
2015,08,30,04,49,2.10
2015,08,30,04,50,3.20
2015,08,30,04,51,4.70
2015,08,30,04,52,3.40
2015,08,30,04,53,5.30
2015,08,30,04,54,4.40
2015,08,30,04,55,3.90
2015,08,30,04,56,3.30
2015,08,30,04,57,3.90
2015,08,30,04,58,3.10
2015,08,30,04,59,3.90
2015,08,30,05,00,3.00
2015,08,30,05,01,4.20
2015,08,30,05,02,3.00
2015,08,30,05,03,4.60
2015,08,30,05,04,3.50
2015,08,30,05,05,0.30
2015,08,30,05,06,2.00
2015,08,30,05,07,2.70
2015,08,30,05,08,0.50
2015,08,30,05,09,2.80
2015,08,30,05,10,0.50
2015,08,30,05,11,0.00
2015,08,30,05,12,0.00
2015,08,30,05,13,0.20
2015,08,30,05,14,1.00
2015,08,30,05,15,2.40
2015,08,30,05,16,1.90
2015,08,30,05,17,3.00
2015,08,30,05,18,1.00
2015,08,30,05,19,2.50
2015,08,30,05,20,4.60
2015,08,30,05,21,3.00
2015,08,30,05,22,1.50
2015,08,30,05,23,1.50
2015,08,30,05,24,0.60
2015,08,30,05,25,0.60
2015,08,30,05,26,1.40
2015,08,30,05,27,0.90
2015,08,30,05,28,2.50
2015,08,30,05,29,2.10
2015,08,30,05,30,1.70
2015,08,30,05,31,1.80
2015,08,30,05,32,2.10
2015,08,30,05,33,1.70
2015,08,30,05,34,2.80
2015,08,30,05,35,1.00
2015,08,30,05,36,1.30
2015,08,30,05,37,2.30
2015,08,30,05,38,0.40
2015,08,30,05,39,2.20
2015,08,30,05,40,1.30
2015,08,30,05,41,2.20
2015,08,30,05,42,1.00
2015,08,30,05,43,2.80
2015,08,30,05,44,5.10
2015,08,30,05,45,4.90
2015,08,30,05,46,4.70
2015,08,30,05,47,4.60
2015,08,30,05,48,2.90
2015,08,30,05,49,3.10
2015,08,30,05,50,3.00
2015,08,30,05,51,2.90
2015,08,30,05,52,3.20
2015,08,30,05,53,3.20
2015,08,30,05,54,2.90
2015,08,30,05,55,4.00
2015,08,30,05,56,3.40
2015,08,30,05,57,2.70
2015,08,30,05,58,5.00
2015,08,30,05,59,3.40
2015,08,30,06,00,2.80
2015,08,30,06,01,4.40
2015,08,30,06,02,5.70
2015,08,30,06,03,5.10
2015,08,30,06,04,5.00
2015,08,30,06,05,5.00
2015,08,30,06,06,2.60
2015,08,30,06,07,5.70
2015,08,30,06,08,2.40
2015,08,30,06,09,2.90
2015,08,30,06,10,1.70
2015,08,30,06,11,2.40
2015,08,30,06,12,2.20
2015,08,30,06,13,2.70
2015,08,30,06,14,2.40
2015,08,30,06,15,1.40
2015,08,30,06,16,1.80
2015,08,30,06,17,1.40
2015,08,30,06,18,0.30
2015,08,30,06,19,0.40
2015,08,30,06,20,0.10
2015,08,30,06,21,0.00
2015,08,30,06,22,0.40
2015,08,30,06,23,1.10
2015,08,30,06,24,0.80
2015,08,30,06,25,0.40
2015,08,30,06,26,0.20
2015,08,30,06,27,0.10
2015,08,30,06,28,0.00
2015,08,30,06,29,0.00
2015,08,30,06,30,0.00
2015,08,30,06,31,0.00
2015,08,30,06,32,0.00
2015,08,30,06,33,0.00
2015,08,30,06,34,0.00
2015,08,30,06,35,0.00
2015,08,30,06,36,0.00
2015,08,30,06,37,0.00
2015,08,30,06,38,0.00
2015,08,30,06,39,0.00
2015,08,30,06,40,0.00
2015,08,30,06,41,0.00
2015,08,30,06,42,0.00
2015,08,30,06,43,0.00
2015,08,30,06,44,0.00
2015,08,30,06,45,0.00
2015,08,30,06,46,0.00
2015,08,30,06,47,0.00
2015,08,30,06,48,0.00
2015,08,30,06,49,0.00
2015,08,30,06,50,0.00
2015,08,30,06,51,0.00
2015,08,30,06,52,0.20
2015,08,30,06,53,0.10
2015,08,30,06,54,0.20
2015,08,30,06,55,0.00
2015,08,30,06,56,0.30
2015,08,30,06,57,0.80
2015,08,30,06,58,0.00
2015,08,30,06,59,0.00
2015,08,30,07,00,0.00
2015,08,30,07,01,0.00
2015,08,30,07,02,0.00
2015,08,30,07,03,0.00
2015,08,30,07,04,0.00
2015,08,30,07,05,0.00
2015,08,30,07,06,0.00
2015,08,30,07,07,0.20
2015,08,30,07,08,0.00
2015,08,30,07,09,0.10
2015,08,30,07,10,0.10
2015,08,30,07,11,0.00
2015,08,30,07,12,1.00
2015,08,30,07,13,0.20
2015,08,30,07,14,0.40
2015,08,30,07,15,0.90
2015,08,30,07,16,1.30
2015,08,30,07,17,1.70
2015,08,30,07,18,0.70
2015,08,30,07,19,1.40
2015,08,30,07,20,1.20
2015,08,30,07,21,0.60
2015,08,30,07,22,1.40
2015,08,30,07,23,1.60
2015,08,30,07,24,2.90
2015,08,30,07,25,1.80
2015,08,30,07,26,2.80
2015,08,30,07,27,1.90
2015,08,30,07,28,1.50
2015,08,30,07,29,0.30
2015,08,30,07,30,2.70
2015,08,30,07,31,2.20
2015,08,30,07,32,2.30
2015,08,30,07,33,1.90
2015,08,30,07,34,1.40
2015,08,30,07,35,1.10
2015,08,30,07,36,0.60
2015,08,30,07,37,0.00
2015,08,30,07,38,0.00
2015,08,30,07,39,0.00
2015,08,30,07,40,0.00
2015,08,30,07,41,0.10
2015,08,30,07,42,0.10
2015,08,30,07,43,0.00
2015,08,30,07,44,0.00
2015,08,30,07,45,0.00
2015,08,30,07,46,0.00
2015,08,30,07,47,0.00
2015,08,30,07,48,0.00
2015,08,30,07,49,0.00
2015,08,30,07,50,0.00
2015,08,30,07,51,0.00
2015,08,30,07,52,0.00
2015,08,30,07,53,0.00
2015,08,30,07,54,0.00
2015,08,30,07,55,0.00
2015,08,30,07,56,0.00
2015,08,30,07,57,0.00
2015,08,30,07,58,0.00
2015,08,30,07,59,1.90
2015,08,30,08,00,2.90
2015,08,30,08,01,2.80
2015,08,30,08,02,2.30
2015,08,30,08,03,1.40
2015,08,30,08,04,1.10
2015,08,30,08,05,1.30
2015,08,30,08,06,1.90
2015,08,30,08,07,0.80
2015,08,30,08,08,0.10
2015,08,30,08,09,0.00
2015,08,30,08,10,2.10
2015,08,30,08,11,1.00
2015,08,30,08,12,0.30
2015,08,30,08,13,0.50
2015,08,30,08,14,0.30
2015,08,30,08,15,1.30
2015,08,30,08,16,3.20
2015,08,30,08,17,2.10
2015,08,30,08,18,2.20
2015,08,30,08,19,3.00
2015,08,30,08,20,1.10
2015,08,30,08,21,2.70
2015,08,30,08,22,4.30
2015,08,30,08,23,2.20
2015,08,30,08,24,2.90
2015,08,30,08,25,3.20
2015,08,30,08,26,2.10
2015,08,30,08,27,2.80
2015,08,30,08,28,1.80
2015,08,30,08,29,0.00
2015,08,30,08,30,1.90
2015,08,30,08,31,2.30
2015,08,30,08,32,1.80
2015,08,30,08,33,0.40
2015,08,30,08,34,0.60
2015,08,30,08,35,0.00
2015,08,30,08,36,0.10
2015,08,30,08,37,0.60
2015,08,30,08,38,0.30
2015,08,30,08,39,0.20
2015,08,30,08,40,0.50
2015,08,30,08,41,1.30
2015,08,30,08,42,3.20
2015,08,30,08,43,2.00
2015,08,30,08,44,0.20
2015,08,30,08,45,0.90
2015,08,30,08,46,3.80
2015,08,30,08,47,2.50
2015,08,30,08,48,3.10
2015,08,30,08,49,4.10
2015,08,30,08,50,2.10
2015,08,30,08,51,3.20
2015,08,30,08,52,1.90
2015,08,30,08,53,5.70
2015,08,30,08,54,4.70
2015,08,30,08,55,4.40
2015,08,30,08,56,0.60
2015,08,30,08,57,2.40
2015,08,30,08,58,3.40
2015,08,30,08,59,4.00
2015,08,30,09,00,4.50
2015,08,30,09,01,4.40
2015,08,30,09,02,3.90
2015,08,30,09,03,5.10
2015,08,30,09,04,4.40
2015,08,30,09,05,5.10
2015,08,30,09,06,3.70
2015,08,30,09,07,3.80
2015,08,30,09,08,5.40
2015,08,30,09,09,1.00
2015,08,30,09,10,5.50
2015,08,30,09,11,6.70
2015,08,30,09,12,6.30
2015,08,30,09,13,2.00
2015,08,30,09,14,3.40
2015,08,30,09,15,5.10
2015,08,30,09,16,5.90
2015,08,30,09,17,5.30
2015,08,30,09,18,6.90
2015,08,30,09,19,8.80
2015,08,30,09,20,3.70
2015,08,30,09,21,4.40
2015,08,30,09,22,1.80
2015,08,30,09,23,3.40
2015,08,30,09,24,3.60
2015,08,30,09,25,3.10
2015,08,30,09,26,0.50
2015,08,30,09,27,0.00
2015,08,30,09,28,0.40
2015,08,30,09,29,0.40
2015,08,30,09,30,0.60
2015,08,30,09,31,1.40
2015,08,30,09,32,1.20
2015,08,30,09,33,5.40
2015,08,30,09,34,4.70
2015,08,30,09,35,4.80
2015,08,30,09,36,4.60
2015,08,30,09,37,2.80
2015,08,30,09,38,5.40
2015,08,30,09,39,4.00
2015,08,30,09,40,2.90
2015,08,30,09,41,1.40
2015,08,30,09,42,0.10
2015,08,30,09,43,0.00
2015,08,30,09,44,0.10
2015,08,30,09,45,0.40
2015,08,30,09,46,3.00
2015,08,30,09,47,3.10
2015,08,30,09,48,6.40
2015,08,30,09,49,4.80
2015,08,30,09,50,3.40
2015,08,30,09,51,3.90
2015,08,30,09,52,3.40
2015,08,30,09,53,0.70
2015,08,30,09,54,2.90
2015,08,30,09,55,3.20
2015,08,30,09,56,1.20
2015,08,30,09,57,1.30
2015,08,30,09,58,1.20
2015,08,30,09,59,6.20
2015,08,30,10,00,8.40
2015,08,30,10,01,9.70
2015,08,30,10,02,5.70
2015,08,30,10,03,6.10
2015,08,30,10,04,7.30
2015,08,30,10,05,7.10
2015,08,30,10,06,5.60
2015,08,30,10,07,8.50
2015,08,30,10,08,8.70
2015,08,30,10,09,4.60
2015,08,30,10,10,6.50
2015,08,30,10,11,6.10
2015,08,30,10,12,5.40
2015,08,30,10,13,7.40
2015,08,30,10,14,8.50
2015,08,30,10,15,7.50
2015,08,30,10,16,6.00
2015,08,30,10,17,6.80
2015,08,30,10,18,7.20
2015,08,30,10,19,7.90
2015,08,30,10,20,9.70
2015,08,30,10,21,6.40
2015,08,30,10,22,3.80
2015,08,30,10,23,7.20
2015,08,30,10,24,5.30
2015,08,30,10,25,8.40
2015,08,30,10,26,5.80
2015,08,30,10,27,3.30
2015,08,30,10,28,4.70
2015,08,30,10,29,6.40
2015,08,30,10,30,6.40
2015,08,30,10,31,5.30
2015,08,30,10,32,6.40
2015,08,30,10,33,7.40
2015,08,30,10,34,7.70
2015,08,30,10,35,4.30
2015,08,30,10,36,5.20
2015,08,30,10,37,7.70
2015,08,30,10,38,7.20
2015,08,30,10,39,6.40
2015,08,30,10,40,5.60
2015,08,30,10,41,7.40
2015,08,30,10,42,5.00
2015,08,30,10,43,4.50
2015,08,30,10,44,5.70
2015,08,30,10,45,9.30
2015,08,30,10,46,7.00
2015,08,30,10,47,6.90
2015,08,30,10,48,6.00
2015,08,30,10,49,11.30
2015,08,30,10,50,9.40
2015,08,30,10,51,6.40
2015,08,30,10,52,8.80
2015,08,30,10,53,7.60
2015,08,30,10,54,7.60
2015,08,30,10,55,6.30
2015,08,30,10,56,14.20
2015,08,30,10,57,10.90
2015,08,30,10,58,12.40
2015,08,30,10,59,11.30
2015,08,30,11,00,12.60
2015,08,30,11,01,7.20
2015,08,30,11,02,9.00
2015,08,30,11,03,7.70
2015,08,30,11,04,10.00
2015,08,30,11,05,9.10
2015,08,30,11,06,7.40
2015,08,30,11,07,8.10
2015,08,30,11,08,9.50
2015,08,30,11,09,11.60
2015,08,30,11,10,15.20
2015,08,30,11,11,15.10
2015,08,30,11,12,11.30
2015,08,30,11,13,8.40
2015,08,30,11,14,6.70
2015,08,30,11,15,10.10
2015,08,30,11,16,10.60
2015,08,30,11,17,9.50
2015,08,30,11,18,14.50
2015,08,30,11,19,12.20
2015,08,30,11,20,8.90
2015,08,30,11,21,8.20
2015,08,30,11,22,12.40
2015,08,30,11,23,13.70
2015,08,30,11,24,10.80
2015,08,30,11,25,10.70
2015,08,30,11,26,9.00
2015,08,30,11,27,15.10
2015,08,30,11,28,12.70
2015,08,30,11,29,13.20
2015,08,30,11,30,10.40
2015,08,30,11,31,15.10
2015,08,30,11,32,15.50
2015,08,30,11,33,13.60
2015,08,30,11,34,12.00
2015,08,30,11,35,5.10
2015,08,30,11,36,9.20
2015,08,30,11,37,9.00
2015,08,30,11,38,9.50
2015,08,30,11,39,15.20
2015,08,30,11,40,11.80
2015,08,30,11,41,7.70
2015,08,30,11,42,9.60
2015,08,30,11,43,12.50
2015,08,30,11,44,9.30
2015,08,30,11,45,9.70
2015,08,30,11,46,9.80
2015,08,30,11,47,10.60
2015,08,30,11,48,10.30
2015,08,30,11,49,10.50
2015,08,30,11,50,7.10
2015,08,30,11,51,13.30
2015,08,30,11,52,10.00
2015,08,30,11,53,12.00
2015,08,30,11,54,8.20
2015,08,30,11,55,11.60
2015,08,30,11,56,14.60
2015,08,30,11,57,11.70
2015,08,30,11,58,13.00
2015,08,30,11,59,7.40
2015,08,30,12,00,11.30
2015,08,30,12,01,13.40
2015,08,30,12,02,13.10
2015,08,30,12,03,8.90
2015,08,30,12,04,11.70
2015,08,30,12,05,7.60
2015,08,30,12,06,11.80
2015,08,30,12,07,8.00
2015,08,30,12,08,9.50
2015,08,30,12,09,8.30
2015,08,30,12,10,10.10
2015,08,30,12,11,15.00
2015,08,30,12,12,13.00
2015,08,30,12,13,9.70
2015,08,30,12,14,14.30
2015,08,30,12,15,10.70
2015,08,30,12,16,9.40
2015,08,30,12,17,5.80
2015,08,30,12,18,9.90
2015,08,30,12,19,11.50
2015,08,30,12,20,10.90
2015,08,30,12,21,9.60
2015,08,30,12,22,8.20
2015,08,30,12,23,6.20
2015,08,30,12,24,11.70
2015,08,30,12,25,11.40
2015,08,30,12,26,13.40
2015,08,30,12,27,9.80
2015,08,30,12,28,10.40
2015,08,30,12,29,7.60
2015,08,30,12,30,7.70
2015,08,30,12,31,7.40
2015,08,30,12,32,6.00
2015,08,30,12,33,12.90
2015,08,30,12,34,8.80
2015,08,30,12,35,10.30
2015,08,30,12,36,14.60
2015,08,30,12,37,12.30
2015,08,30,12,38,11.70
2015,08,30,12,39,13.40
2015,08,30,12,40,6.20
2015,08,30,12,41,6.70
2015,08,30,12,42,10.90
2015,08,30,12,43,12.40
2015,08,30,12,44,11.40
2015,08,30,12,45,16.90
2015,08,30,12,46,14.80
2015,08,30,12,47,14.40
2015,08,30,12,48,12.50
2015,08,30,12,49,6.20
2015,08,30,12,50,13.90
2015,08,30,12,51,8.00
2015,08,30,12,52,9.60
2015,08,30,12,53,11.70
2015,08,30,12,54,16.20
2015,08,30,12,55,12.40
2015,08,30,12,56,12.40
2015,08,30,12,57,6.30
2015,08,30,12,58,13.40
2015,08,30,12,59,12.30
2015,08,30,13,00,16.00
2015,08,30,13,01,13.20
2015,08,30,13,02,10.10
2015,08,30,13,03,12.00
2015,08,30,13,04,13.80
2015,08,30,13,05,12.30
2015,08,30,13,06,9.30
2015,08,30,13,07,9.50
2015,08,30,13,08,11.10
2015,08,30,13,09,13.70
2015,08,30,13,10,13.30
2015,08,30,13,11,9.30
2015,08,30,13,12,13.70
2015,08,30,13,13,15.40
2015,08,30,13,14,12.20
2015,08,30,13,15,14.30
2015,08,30,13,16,13.40
2015,08,30,13,17,14.40
2015,08,30,13,18,8.50
2015,08,30,13,19,16.30
2015,08,30,13,20,12.90
2015,08,30,13,21,7.80
2015,08,30,13,22,7.00
2015,08,30,13,23,12.30
2015,08,30,13,24,6.80
2015,08,30,13,25,12.80
2015,08,30,13,26,13.20
2015,08,30,13,27,12.00
2015,08,30,13,28,12.50
2015,08,30,13,29,8.30
2015,08,30,13,30,6.90
2015,08,30,13,31,4.40
2015,08,30,13,32,12.20
2015,08,30,13,33,14.70
2015,08,30,13,34,12.40
2015,08,30,13,35,12.10
2015,08,30,13,36,5.60
2015,08,30,13,37,12.20
2015,08,30,13,38,8.10
2015,08,30,13,39,15.30
2015,08,30,13,40,16.90
2015,08,30,13,41,16.20
2015,08,30,13,42,15.10
2015,08,30,13,43,8.50
2015,08,30,13,44,8.60
2015,08,30,13,45,13.00
2015,08,30,13,46,7.70
2015,08,30,13,47,11.80
2015,08,30,13,48,17.10
2015,08,30,13,49,16.30
2015,08,30,13,50,11.90
2015,08,30,13,51,5.90
2015,08,30,13,52,5.70
2015,08,30,13,53,11.60
2015,08,30,13,54,12.90
2015,08,30,13,55,10.80
2015,08,30,13,56,14.70
2015,08,30,13,57,16.00
2015,08,30,13,58,8.40
2015,08,30,13,59,7.10
2015,08,30,14,00,8.20
2015,08,30,14,01,9.30
2015,08,30,14,02,10.80
2015,08,30,14,03,8.80
2015,08,30,14,04,8.70
2015,08,30,14,05,14.60
2015,08,30,14,06,11.20
2015,08,30,14,07,10.40
2015,08,30,14,08,14.30
2015,08,30,14,09,13.70
2015,08,30,14,10,12.30
2015,08,30,14,11,10.40
2015,08,30,14,12,9.40
2015,08,30,14,13,16.20
2015,08,30,14,14,8.80
2015,08,30,14,15,7.20
2015,08,30,14,16,13.00
2015,08,30,14,17,11.00
2015,08,30,14,18,11.00
2015,08,30,14,19,7.60
2015,08,30,14,20,10.10
2015,08,30,14,21,11.00
2015,08,30,14,22,8.10
2015,08,30,14,23,9.50
2015,08,30,14,24,8.70
2015,08,30,14,25,7.60
2015,08,30,14,26,6.40
2015,08,30,14,27,11.50
2015,08,30,14,28,13.40
2015,08,30,14,29,14.10
2015,08,30,14,30,11.30
2015,08,30,14,31,10.60
2015,08,30,14,32,8.90
2015,08,30,14,33,7.60
2015,08,30,14,34,7.50
2015,08,30,14,35,14.30
2015,08,30,14,36,13.90
2015,08,30,14,37,10.80
2015,08,30,14,38,13.10
2015,08,30,14,39,13.30
2015,08,30,14,40,8.60
2015,08,30,14,41,7.80
2015,08,30,14,42,9.20
2015,08,30,14,43,7.60
2015,08,30,14,44,12.20
2015,08,30,14,45,9.60
2015,08,30,14,46,9.60
2015,08,30,14,47,6.60
2015,08,30,14,48,9.40
2015,08,30,14,49,13.70
2015,08,30,14,50,8.60
2015,08,30,14,51,7.20
2015,08,30,14,52,9.30
2015,08,30,14,53,7.90
2015,08,30,14,54,8.90
2015,08,30,14,55,13.00
2015,08,30,14,56,12.30
2015,08,30,14,57,7.70
2015,08,30,14,58,10.20
2015,08,30,14,59,7.80
2015,08,30,15,00,8.50
2015,08,30,15,01,10.40
2015,08,30,15,02,12.10
2015,08,30,15,03,14.20
2015,08,30,15,04,11.00
2015,08,30,15,05,15.90
2015,08,30,15,06,14.30
2015,08,30,15,07,8.70
2015,08,30,15,08,14.90
2015,08,30,15,09,12.50
2015,08,30,15,10,13.20
2015,08,30,15,11,8.00
2015,08,30,15,12,11.60
2015,08,30,15,13,8.20
2015,08,30,15,14,15.30
2015,08,30,15,15,12.30
2015,08,30,15,16,13.80
2015,08,30,15,17,9.10
2015,08,30,15,18,7.40
2015,08,30,15,19,8.10
2015,08,30,15,20,10.90
2015,08,30,15,21,12.50
2015,08,30,15,22,9.40
2015,08,30,15,23,10.80
2015,08,30,15,24,11.10
2015,08,30,15,25,9.60
2015,08,30,15,26,11.60
2015,08,30,15,27,7.30
2015,08,30,15,28,13.90
2015,08,30,15,29,12.90
2015,08,30,15,30,11.20
2015,08,30,15,31,9.10
2015,08,30,15,32,6.90
2015,08,30,15,33,6.60
2015,08,30,15,34,10.70
2015,08,30,15,35,13.40
2015,08,30,15,36,11.00
2015,08,30,15,37,10.20
2015,08,30,15,38,7.80
2015,08,30,15,39,10.00
2015,08,30,15,40,6.70
2015,08,30,15,41,11.60
2015,08,30,15,42,10.20
2015,08,30,15,43,6.90
2015,08,30,15,44,8.90
2015,08,30,15,45,12.80
2015,08,30,15,46,11.80
2015,08,30,15,47,7.70
2015,08,30,15,48,12.40
2015,08,30,15,49,7.30
2015,08,30,15,50,7.70
2015,08,30,15,51,14.20
2015,08,30,15,52,13.80
2015,08,30,15,53,9.80
2015,08,30,15,54,8.10
2015,08,30,15,55,7.40
2015,08,30,15,56,13.10
2015,08,30,15,57,15.50
2015,08,30,15,58,16.30
2015,08,30,15,59,10.90
2015,08,30,16,00,9.50
2015,08,30,16,01,8.90
2015,08,30,16,02,14.30
2015,08,30,16,03,7.60
2015,08,30,16,04,4.80
2015,08,30,16,05,11.00
2015,08,30,16,06,11.00
2015,08,30,16,07,17.10
2015,08,30,16,08,13.20
2015,08,30,16,09,12.00
2015,08,30,16,10,9.70
2015,08,30,16,11,12.10
2015,08,30,16,12,16.30
2015,08,30,16,13,14.00
2015,08,30,16,14,16.80
2015,08,30,16,15,12.60
2015,08,30,16,16,6.40
2015,08,30,16,17,10.90
2015,08,30,16,18,10.00
2015,08,30,16,19,9.80
2015,08,30,16,20,14.50
2015,08,30,16,21,18.20
2015,08,30,16,22,14.80
2015,08,30,16,23,14.30
2015,08,30,16,24,11.30
2015,08,30,16,25,9.30
2015,08,30,16,26,10.10
2015,08,30,16,27,15.30
2015,08,30,16,28,14.90
2015,08,30,16,29,9.80
2015,08,30,16,30,8.50
2015,08,30,16,31,6.10
2015,08,30,16,32,7.10
2015,08,30,16,33,9.10
2015,08,30,16,34,9.50
2015,08,30,16,35,9.50
2015,08,30,16,36,6.80
2015,08,30,16,37,5.10
2015,08,30,16,38,6.40
2015,08,30,16,39,6.50
2015,08,30,16,40,8.50
2015,08,30,16,41,9.40
2015,08,30,16,42,6.20
2015,08,30,16,43,6.80
2015,08,30,16,44,8.80
2015,08,30,16,45,9.50
2015,08,30,16,46,9.30
2015,08,30,16,47,7.60
2015,08,30,16,48,10.50
2015,08,30,16,49,10.10
2015,08,30,16,50,8.70
2015,08,30,16,51,6.10
2015,08,30,16,52,8.90
2015,08,30,16,53,6.40
2015,08,30,16,54,7.30
2015,08,30,16,55,5.90
2015,08,30,16,56,10.50
2015,08,30,16,57,10.50
2015,08,30,16,58,11.20
2015,08,30,16,59,9.00
2015,08,30,17,00,8.50
2015,08,30,17,01,10.00
2015,08,30,17,02,8.80
2015,08,30,17,03,8.90
2015,08,30,17,04,7.60
2015,08,30,17,05,8.70
2015,08,30,17,06,11.70
2015,08,30,17,07,10.80
2015,08,30,17,08,7.10
2015,08,30,17,09,7.80
2015,08,30,17,10,6.80
2015,08,30,17,11,6.60
2015,08,30,17,12,9.70
2015,08,30,17,13,6.40
2015,08,30,17,14,9.50
2015,08,30,17,15,7.80
2015,08,30,17,16,5.60
2015,08,30,17,17,4.40
2015,08,30,17,18,8.80
2015,08,30,17,19,5.80
2015,08,30,17,20,8.80
2015,08,30,17,21,8.30
2015,08,30,17,22,7.30
2015,08,30,17,23,6.00
2015,08,30,17,24,5.60
2015,08,30,17,25,5.60
2015,08,30,17,26,6.00
2015,08,30,17,27,9.70
2015,08,30,17,28,9.70
2015,08,30,17,29,5.40
2015,08,30,17,30,3.20
2015,08,30,17,31,7.00
2015,08,30,17,32,6.10
2015,08,30,17,33,6.80
2015,08,30,17,34,6.80
2015,08,30,17,35,4.10
2015,08,30,17,36,8.50
2015,08,30,17,37,7.90
2015,08,30,17,38,6.70
2015,08,30,17,39,8.00
2015,08,30,17,40,7.20
2015,08,30,17,41,6.20
2015,08,30,17,42,6.70
2015,08,30,17,43,7.10
2015,08,30,17,44,9.50
2015,08,30,17,45,9.30
2015,08,30,17,46,3.60
2015,08,30,17,47,6.30
2015,08,30,17,48,6.00
2015,08,30,17,49,4.60
2015,08,30,17,50,1.90
2015,08,30,17,51,4.90
2015,08,30,17,52,4.20
2015,08,30,17,53,4.10
2015,08,30,17,54,3.40
2015,08,30,17,55,5.10
2015,08,30,17,56,3.80
2015,08,30,17,57,4.60